BEIDOU G5

Last updated on Tue Apr 02 2019 03:15:24 GMT+0000 (Coordinated Universal Time)

1 38091U 12008A 19091.15265707 .00000044 00000-0 00000+0 0 9992 2 38091 1.9743 68.8276 0005218 300.8649 293.1811 1.00269757 26066
UTC large
Height (km)
Speed (km/s)
/
Latitude / Longitude
Inclination (degrees)
Orbital Period (minutes)
Azimuth
Elevation
Range (km)
Doppler Factor

Next 0 passes for location: London (51.5072 / 0.1276)

Sorry there are no passes over London.